• In Germany
  • List of Countries
  • For 7 days
  • Water Temperature
  • Satellite Maps
  • Weather Map
  • Weather Widgets
  • user-avatar
    Login

    Hourly Weather Hobart

    Today, 18 January, Thursday

    Time Temperature Precipitation Wind Pressure Humidity
    00:00 +12°C° 0 mm 2 mps 749 mmHg 97%
    01:00 +12°C° 0 mm 2 mps 748 mmHg 98%
    02:00 +12°C° 0 mm 2 mps 748 mmHg 96%
    03:00 +12°C° 0 mm 2 mps 748 mmHg 94%
    04:00 +12°C° 0 mm 2 mps 747 mmHg 93%
    05:00 +14°C° 0 mm 2 mps 747 mmHg 81%
    06:00 +16°C° 0 mm 2 mps 747 mmHg 70%
    07:00 +17°C° 0 mm 2 mps 747 mmHg 59%
    08:00 +22°C° 0 mm 1 mps 747 mmHg 47%
    09:00 +25°C° 0 mm 1 mps 747 mmHg 35%
    10:00 +27°C° 0 mm 2 mps 747 mmHg 25%
    11:00 +29°C° 0 mm 2 mps 746 mmHg 22%
    12:00 +31°C° 0 mm 2 mps 746 mmHg 18%
    13:00 +34°C° 0 mm 2 mps 745 mmHg 14%
    14:00 +35°C° 0 mm 3 mps 745 mmHg 15%
    15:00 +36°C° 0 mm 3 mps 744 mmHg 15%
    16:00 +35°C° 0 mm 4 mps 744 mmHg 16%
    17:00 +33°C° 0 mm 3 mps 744 mmHg 22%
    18:00 +30°C° 0 mm 3 mps 744 mmHg 28%
    19:00 +28°C° 0 mm 2 mps 743 mmHg 35%
    20:00 +26°C° 0 mm 2 mps 743 mmHg 39%
    21:00 +24°C° 0 mm 2 mps 743 mmHg 43%
    22:00 +21°C° 0 mm 2 mps 743 mmHg 48%
    23:00 +20°C° 0 mm 3 mps 742 mmHg 48%

    Tomorrow, 19 January, Friday

    Time Temperature Precipitation Wind Pressure Humidity
    00:00 +20°C° 0 mm 3 mps 742 mmHg 49%
    01:00 +20°C° 0 mm 3 mps 742 mmHg 49%
    02:00 +21°C° 0 mm 3 mps 741 mmHg 45%
    03:00 +21°C° 0 mm 3 mps 741 mmHg 42%
    04:00 +22°C° 0 mm 3 mps 741 mmHg 38%
    05:00 +24°C° 0 mm 3 mps 741 mmHg 38%
    06:00 +25°C° 0 mm 3 mps 742 mmHg 37%
    07:00 +26°C° 0 mm 3 mps 742 mmHg 37%
    08:00 +27°C° 0 mm 4 mps 743 mmHg 40%
    09:00 +28°C° 0 mm 4 mps 743 mmHg 42%
    10:00 +28°C° 0 mm 4 mps 744 mmHg 45%
    11:00 +29°C° 0 mm 5 mps 744 mmHg 45%
    12:00 +29°C° 0 mm 5 mps 744 mmHg 45%
    13:00 +30°C° 0 mm 5 mps 745 mmHg 45%
    14:00 +29°C° 0.1 mm 5 mps 745 mmHg 46%
    15:00 +29°C° 0.1 mm 5 mps 745 mmHg 47%
    16:00 +28°C° 0.1 mm 4 mps 745 mmHg 48%
    17:00 +25°C° 0.1 mm 4 mps 745 mmHg 57%
    18:00 +22°C° 0.1 mm 3 mps 746 mmHg 66%
    19:00 +19°C° 0.1 mm 3 mps 746 mmHg 75%
    20:00 +18°C° 0 mm 2 mps 747 mmHg 80%
    21:00 +16°C° 0 mm 2 mps 747 mmHg 84%
    22:00 +15°C° 0 mm 1 mps 748 mmHg 88%
    23:00 +15°C° 0 mm 1 mps 748 mmHg 89%

    Day after tomorrow, 20 January, Saturday

    Time Temperature Precipitation Wind Pressure Humidity
    00:00 +14°C° 0 mm 1 mps 748 mmHg 90%
    01:00 +14°C° 0 mm 1 mps 748 mmHg 91%
    02:00 +14°C° 0 mm 1 mps 748 mmHg 91%
    03:00 +13°C° 0 mm 0 mps 748 mmHg 92%
    04:00 +13°C° 0 mm 0 mps 748 mmHg 92%
    05:00 +15°C° 0 mm 1 mps 748 mmHg 88%
    06:00 +16°C° 0 mm 1 mps 748 mmHg 84%
    07:00 +18°C° 0 mm 1 mps 748 mmHg 81%
    08:00 +19°C° 0 mm 1 mps 749 mmHg 74%
    09:00 +21°C° 0 mm 1 mps 749 mmHg 67%
    10:00 +21°C° 0 mm 2 mps 749 mmHg 60%
    11:00 +24°C° 0 mm 2 mps 749 mmHg 54%
    12:00 +26°C° 0 mm 2 mps 749 mmHg 48%
    13:00 +27°C° 0 mm 3 mps 749 mmHg 41%
    14:00 +27°C° 0 mm 3 mps 748 mmHg 44%
    15:00 +26°C° 0 mm 3 mps 748 mmHg 47%
    16:00 +26°C° 0 mm 4 mps 748 mmHg 49%
    17:00 +24°C° 0 mm 3 mps 748 mmHg 57%
    18:00 +21°C° 0 mm 3 mps 748 mmHg 65%
    19:00 +19°C° 0 mm 3 mps 748 mmHg 73%
    20:00 +17°C° 0 mm 3 mps 748 mmHg 79%
    21:00 +16°C° 0 mm 2 mps 749 mmHg 85%
    22:00 +15°C° 0 mm 2 mps 749 mmHg 90%
    23:00 +15°C° 0 mm 2 mps 748 mmHg 91%

    21 January, Sunday

    Time Temperature Precipitation Wind Pressure Humidity
    00:00 +15°C° 0 mm 2 mps 748 mmHg 92%
    01:00 +15°C° 0 mm 2 mps 748 mmHg 93%
    02:00 +15°C° 0 mm 2 mps 747 mmHg 95%
    03:00 +14°C° 0 mm 2 mps 747 mmHg 96%
    04:00 +14°C° 0 mm 1 mps 747 mmHg 98%
    05:00 +15°C° 0 mm 1 mps 747 mmHg 94%
    06:00 +16°C° 0 mm 2 mps 747 mmHg 89%
    07:00 +17°C° 0 mm 2 mps 747 mmHg 85%
    08:00 +20°C° 0 mm 2 mps 746 mmHg 74%
    09:00 +23°C° 0 mm 2 mps 746 mmHg 64%
    10:00 +26°C° 0 mm 2 mps 746 mmHg 54%
    11:00 +27°C° 0 mm 2 mps 746 mmHg 48%
    12:00 +29°C° 0 mm 2 mps 745 mmHg 43%
    13:00 +30°C° 0 mm 3 mps 745 mmHg 38%
    14:00 +29°C° 0 mm 3 mps 744 mmHg 41%
    15:00 +29°C° 0 mm 4 mps 744 mmHg 43%
    16:00 +28°C° 0 mm 4 mps 743 mmHg 46%
    17:00 +26°C° 0 mm 4 mps 743 mmHg 55%
    18:00 +24°C° 0 mm 3 mps 743 mmHg 64%
    19:00 +21°C° 0 mm 3 mps 743 mmHg 72%
    20:00 +20°C° 0 mm 3 mps 743 mmHg 81%
    21:00 +18°C° 0 mm 2 mps 743 mmHg 89%
    22:00 +16°C° 0 mm 2 mps 743 mmHg 97%
    23:00 +16°C° 0 mm 2 mps 742 mmHg 97%

    22 January, Monday

    Time Temperature Precipitation Wind Pressure Humidity
    00:00 +16°C° 0 mm 2 mps 741 mmHg 97%
    01:00 +16°C° 0 mm 2 mps 740 mmHg 98%
    02:00 +16°C° 0 mm 2 mps 740 mmHg 98%
    03:00 +16°C° 0 mm 2 mps 740 mmHg 97%
    04:00 +15°C° 0 mm 2 mps 739 mmHg 97%
    05:00 +17°C° 0 mm 2 mps 739 mmHg 91%
    06:00 +18°C° 0 mm 2 mps 739 mmHg 84%
    07:00 +19°C° 0 mm 2 mps 740 mmHg 77%
    08:00 +21°C° 0 mm 2 mps 740 mmHg 67%
    09:00 +24°C° 0 mm 3 mps 740 mmHg 57%
    10:00 +26°C° 0 mm 4 mps 740 mmHg 47%
    11:00 +26°C° 0 mm 4 mps 740 mmHg 42%
    12:00 +27°C° 0 mm 5 mps 740 mmHg 38%
    13:00 +27°C° 0 mm 5 mps 740 mmHg 33%
    14:00 +27°C° 0 mm 5 mps 740 mmHg 36%
    15:00 +26°C° 0 mm 5 mps 741 mmHg 38%
    16:00 +25°C° 0 mm 5 mps 741 mmHg 41%
    17:00 +23°C° 0 mm 5 mps 741 mmHg 47%
    18:00 +21°C° 0 mm 4 mps 742 mmHg 52%
    19:00 +19°C° 0 mm 4 mps 743 mmHg 58%
    20:00 +17°C° 0 mm 3 mps 743 mmHg 68%
    21:00 +14°C° 0 mm 3 mps 744 mmHg 78%
    22:00 +13°C° 0 mm 2 mps 744 mmHg 88%
    23:00 +13°C° 0 mm 2 mps 744 mmHg 90%

    23 January, Tuesday

    Time Temperature Precipitation Wind Pressure Humidity
    00:00 +12°C° 0 mm 2 mps 745 mmHg 92%
    01:00 +12°C° 0 mm 1 mps 745 mmHg 94%
    02:00 +12°C° 0 mm 1 mps 745 mmHg 94%
    03:00 +12°C° 0 mm 1 mps 744 mmHg 93%
    04:00 +12°C° 0 mm 1 mps 744 mmHg 92%
    05:00 +13°C° 0 mm 1 mps 745 mmHg 88%
    06:00 +14°C° 0 mm 1 mps 745 mmHg 85%
    07:00 +15°C° 0 mm 1 mps 745 mmHg 81%
    08:00 +18°C° 0 mm 1 mps 745 mmHg 73%
    09:00 +20°C° 0 mm 1 mps 745 mmHg 64%
    10:00 +22°C° 0 mm 1 mps 745 mmHg 56%
    11:00 +23°C° 0 mm 1 mps 745 mmHg 50%
    12:00 +25°C° 0 mm 2 mps 745 mmHg 44%
    13:00 +27°C° 0 mm 2 mps 745 mmHg 38%
    14:00 +26°C° 0 mm 3 mps 745 mmHg 38%
    15:00 +26°C° 0 mm 3 mps 744 mmHg 38%
    16:00 +26°C° 0 mm 4 mps 744 mmHg 39%
    17:00 +24°C° 0 mm 3 mps 745 mmHg 49%
    18:00 +21°C° 0 mm 3 mps 745 mmHg 60%
    19:00 +19°C° 0 mm 2 mps 745 mmHg 70%
    20:00 +18°C° 0 mm 2 mps 745 mmHg 78%
    21:00 +16°C° 0 mm 2 mps 745 mmHg 86%
    22:00 +15°C° 0 mm 1 mps 745 mmHg 94%
    23:00 +15°C° 0 mm 1 mps 745 mmHg 94%
    Show more